Weather History for Jefferson, NC

Change the Weather History Date:

Saturday, December 13, 2014

  Actual Average Record
Temperature  
Mean Temperature 44 °F -  
Max Temperature 52 °F 46 °F 66 °F (2007)
Min Temperature 35 °F 26 °F 7 °F (1982)
Degree Days  
Heating Degree Days 22    
Moisture  
Dew Point 8 °F    
Average Humidity 25    
Maximum Humidity 39    
Minimum Humidity 12    
Precipitation  
Precipitation 0.00 in - - ()
Sea Level Pressure  
Sea Level Pressure 30.10 in    
Wind  
Wind Speed 12 mph (WNW)    
Max Wind Speed 24 mph    
Max Gust Speed 31 mph    
Visibility 10 miles    
Events      
Averages and records for this station are not official NWS values.
T = Trace of Precipitation, MM = Missing Value Source: NWS Daily Summary

Daily Weather History Graph

Daily Weather History Graph

Search for Another Location

Airport:

Trip Planner

Search our weather history database for the weather conditions in past years. The results will help you decide how hot, cold, wet, or windy it might be!

Date:

Astronomy

Dec. 13, 2014 Rise Set
Actual Time 7:28 AM EST 5:11 PM EST
Civil Twilight 7:00 AM EST 5:39 PM EST
Nautical Twilight 6:27 AM EST 6:12 PM EST
Astronomical Twilight 5:56 AM EST 6:43 PM EST
Moon No Moon Rise 12:00 PM EST (12/13)
Length of Visible Light 10h 39m
Length of Day
9h 42m
Waning Gibbous, 58% of the Moon is Illuminated
Dec 13
Waning Gibbous
Dec 14
Last Quarter
Dec 21
New
Dec 28
First Quarter
Jan 4
Full

Hourly Weather History & Observations

Time (EST) Temp. Windchill Dew Point Humidity Pressure Visibility Wind Dir Wind Speed Gust Speed Precip Events Conditions
12:15 AM 35.8 °F 23.9 °F 12.7 °F 39% 30.16 in 10.0 mi West 24.2 mph 31.1 mph N/A   Clear
12:35 AM 35.6 °F 25.2 °F 12.9 °F 39% 30.15 in 10.0 mi West 18.4 mph 26.5 mph N/A   Clear
12:55 AM 35.6 °F 25.5 °F 12.4 °F 38% 30.14 in 10.0 mi West 17.3 mph 26.5 mph N/A   Clear
1:15 AM 36.5 °F 28.2 °F 10.2 °F 34% 30.14 in 10.0 mi West 12.7 mph 18.4 mph N/A   Clear
1:35 AM 37.4 °F 29.8 °F 8.2 °F 30% 30.14 in 10.0 mi West 11.5 mph - N/A   Clear
1:55 AM 36.9 °F 25.9 °F 9.9 °F 33% 30.13 in 10.0 mi West 21.9 mph 28.8 mph N/A   Clear
2:15 AM 36.1 °F 24.7 °F 11.1 °F 36% 30.13 in 10.0 mi West 23.0 mph 28.8 mph N/A   Clear
2:35 AM 35.6 °F 24.2 °F 12.2 °F 38% 30.13 in 10.0 mi West 21.9 mph 26.5 mph N/A   Clear
2:55 AM 36.0 °F 25.3 °F 11.3 °F 36% 30.13 in 10.0 mi West 19.6 mph 26.5 mph N/A   Clear
3:15 AM 36.3 °F 26.1 °F 10.9 °F 35% 30.12 in 10.0 mi West 18.4 mph - N/A   Mostly Cloudy
3:35 AM 37.0 °F 26.4 °F 9.3 °F 32% 30.11 in 10.0 mi West 20.7 mph 28.8 mph N/A   Scattered Clouds
3:55 AM 37.0 °F 27.0 °F 8.8 °F 31% 30.11 in 10.0 mi West 18.4 mph 26.5 mph N/A   Clear
4:15 AM 37.0 °F 28.9 °F 7.2 °F 29% 30.10 in 10.0 mi West 12.7 mph - N/A   Clear
4:35 AM 37.8 °F 30.7 °F 6.3 °F 27% 30.10 in 10.0 mi West 10.4 mph - N/A   Scattered Clouds
4:55 AM 37.9 °F 32.1 °F 3.9 °F 24% 30.10 in 10.0 mi NW 8.1 mph - N/A   Scattered Clouds
5:15 AM 39.6 °F 33.5 °F -0.6 °F 19% 30.10 in 10.0 mi NW 9.2 mph 21.9 mph N/A   Clear
5:35 AM 40.1 °F 36.9 °F -2.0 °F 17% 30.11 in 10.0 mi NW 4.6 mph 18.4 mph N/A   Clear
5:55 AM 38.8 °F 35.4 °F 0.7 °F 20% 30.11 in 10.0 mi NW 4.6 mph - N/A   Mostly Cloudy
6:15 AM 39.6 °F 34.0 °F -2.7 °F 17% 30.11 in 10.0 mi North 8.1 mph - N/A   Scattered Clouds
6:35 AM 35.8 °F 31.9 °F 6.3 °F 29% 30.12 in 10.0 mi ESE 4.6 mph - N/A   Clear
6:55 AM 38.1 °F 35.7 °F 1.2 °F 21% 30.12 in 10.0 mi West 3.5 mph - N/A   Clear
7:15 AM 39.2 °F 32.0 °F 2.3 °F 21% 30.11 in 10.0 mi West 11.5 mph - N/A   Clear
7:35 AM 38.8 °F 31.2 °F 6.8 °F 27% 30.12 in 10.0 mi West 12.7 mph - N/A   Clear
8:00 AM 37.8 °F 33.3 °F 9.7 °F 31% 30.13 in 10.0 mi WNW 5.8 mph - N/A   Clear
8:15 AM 39.0 °F 35.7 °F 10.4 °F 31% 30.13 in 10.0 mi NNW 4.6 mph - N/A   Clear
8:35 AM 40.1 °F 35.3 °F 13.8 °F 34% 30.12 in 10.0 mi NNW 6.9 mph - N/A   Clear
8:55 AM 42.1 °F 37.1 °F 10.4 °F 27% 30.13 in 10.0 mi NNW 8.1 mph - N/A   Clear
9:15 AM 44.6 °F 40.2 °F 5.0 °F 20% 30.13 in 10.0 mi NW 8.1 mph 16.1 mph N/A   Clear
9:35 AM 44.1 °F 37.7 °F 6.4 °F 21% 30.13 in 10.0 mi NW 12.7 mph 16.1 mph N/A   Clear
9:55 AM 45.1 °F 39.1 °F 2.3 °F 17% 30.12 in 10.0 mi NW 12.7 mph 25.3 mph N/A   Clear
10:15 AM 46.4 °F 44.3 °F 0.1 °F 15% 30.13 in 10.0 mi North 4.6 mph 21.9 mph N/A   Clear
10:35 AM 48.4 °F - 3.9 °F 16% 30.13 in 10.0 mi East 5.8 mph - N/A   Clear
10:55 AM 46.4 °F 42.4 °F 7.7 °F 21% 30.13 in 10.0 mi WSW 8.1 mph - N/A   Clear
11:15 AM 47.1 °F - 7.3 °F 20% 30.13 in 10.0 mi WSW 5.8 mph - N/A   Clear
11:35 AM 47.8 °F - 7.5 °F 19% 30.12 in 10.0 mi West 8.1 mph - N/A   Clear
11:55 AM 48.4 °F - 8.1 °F 20% 30.12 in 10.0 mi West 5.8 mph - N/A   Clear
12:15 PM 48.2 °F - 10.0 °F 21% 30.11 in 10.0 mi WSW 5.8 mph - N/A   Clear
12:35 PM 49.5 °F - 9.9 °F 20% 30.11 in 10.0 mi WNW 5.8 mph - N/A   Clear
12:55 PM 50.2 °F - 10.0 °F 20% 30.09 in 10.0 mi NW 9.2 mph 17.3 mph N/A   Clear
1:15 PM 51.4 °F - 8.6 °F 18% 30.09 in 10.0 mi Calm Calm - N/A   Clear
1:35 PM 52.7 °F - 5.4 °F 15% 30.09 in 10.0 mi West 8.1 mph - N/A   Clear
1:55 PM 50.0 °F - 12.6 °F 22% 30.09 in 10.0 mi WSW 5.8 mph 17.3 mph N/A   Clear
2:15 PM 51.1 °F - 6.8 °F 17% 30.09 in 10.0 mi NW 5.8 mph - N/A   Clear
2:35 PM 52.0 °F - 6.4 °F 16% 30.09 in 10.0 mi WSW 4.6 mph - N/A   Clear
2:55 PM 52.0 °F - 1.2 °F 13% 30.09 in 10.0 mi WNW 3.5 mph - N/A   Clear
3:15 PM 51.8 °F - -0.4 °F 12% 30.09 in 10.0 mi West 5.8 mph - N/A   Clear
3:35 PM 50.9 °F - 8.8 °F 18% 30.08 in 10.0 mi WSW 4.6 mph - N/A   Clear
3:55 PM 49.6 °F - 9.7 °F 20% 30.09 in 10.0 mi Calm Calm - N/A   Clear
4:15 PM 50.0 °F - 6.4 °F 17% 30.09 in 10.0 mi WNW 6.9 mph - N/A   Clear
4:35 PM 48.0 °F - 9.7 °F 21% 30.09 in 10.0 mi West 6.9 mph - N/A   Clear
4:55 PM 46.8 °F - 9.7 °F 22% 30.09 in 10.0 mi Calm Calm - N/A   Clear
5:15 PM 45.3 °F 44.0 °F 11.1 °F 25% 30.09 in 10.0 mi SW 3.5 mph - N/A   Clear
5:35 PM 44.6 °F 43.1 °F 11.8 °F 27% 30.08 in 10.0 mi West 3.5 mph - N/A   Clear
5:55 PM 44.8 °F 42.4 °F 9.9 °F 24% 30.08 in 10.0 mi WNW 4.6 mph - N/A   Clear
6:15 PM 43.9 °F 39.3 °F 10.2 °F 25% 30.08 in 10.0 mi WNW 8.1 mph - N/A   Clear
6:35 PM 45.5 °F 43.2 °F 7.9 °F 22% 30.07 in 10.0 mi NNW 4.6 mph 16.1 mph N/A   Clear
6:55 PM 44.1 °F 41.5 °F 7.7 °F 23% 30.07 in 10.0 mi NNW 4.6 mph - N/A   Clear
7:15 PM 43.2 °F 39.7 °F 8.6 °F 24% 30.07 in 10.0 mi NW 5.8 mph - N/A   Clear
7:35 PM 43.7 °F - 7.7 °F 23% 30.07 in 10.0 mi Calm Calm - N/A   Clear
7:55 PM 42.3 °F 38.6 °F 8.4 °F 25% 30.07 in 10.0 mi WNW 5.8 mph - N/A   Clear
8:15 PM 42.3 °F - 9.3 °F 26% 30.07 in 10.0 mi Calm Calm - N/A   Clear
8:35 PM 41.2 °F - 9.7 °F 28% 30.07 in 10.0 mi Calm Calm - N/A   Clear
8:55 PM 41.0 °F - 10.2 °F 28% 30.07 in 10.0 mi Calm Calm - N/A   Clear
9:15 PM 41.0 °F 34.7 °F 12.7 °F 32% 30.06 in 10.0 mi WNW 10.4 mph - N/A   Clear
9:35 PM 41.5 °F 37.1 °F 11.3 °F 29% 30.07 in 10.0 mi WNW 6.9 mph - N/A   Clear
9:55 PM 40.6 °F 36.7 °F 12.6 °F 32% 30.07 in 10.0 mi NW 5.8 mph - N/A   Clear
10:15 PM 41.0 °F 37.1 °F 12.2 °F 31% 30.07 in 10.0 mi NNW 5.8 mph - N/A   Clear
10:35 PM 39.6 °F 37.4 °F 13.1 °F 34% 30.07 in 10.0 mi WNW 3.5 mph - N/A   Clear
10:55 PM 40.3 °F 38.2 °F 12.0 °F 32% 30.07 in 10.0 mi NW 3.5 mph - N/A   Clear
11:15 PM 41.5 °F 39.6 °F 10.4 °F 28% 30.06 in 10.0 mi NW 3.5 mph - N/A   Clear
11:35 PM 41.2 °F - 11.3 °F 30% 30.05 in 10.0 mi Calm Calm - N/A   Clear
11:55 PM 39.9 °F - 12.2 °F 32% 30.05 in 10.0 mi Calm Calm - N/A   Clear